Weather History for KMBS - January, 2014

Change the Weather History Date:

Friday, January 31, 2014

  Actual Average Record
Temperature  
Mean Temperature 26 °F 22 °F  
Max Temperature 32 °F 29 °F 54 °F (2012)
Min Temperature 19 °F 15 °F 1 °F (2011)
Degree Days  
Heating Degree Days 39    
Month to date heating degree days 1510  
Since 1 July heating degree days 4214  
Cooling Degree Days 0    
Month to date cooling degree days 0  
Year to date cooling degree days 0  
Moisture  
Dew Point 17 °F    
Average Humidity 73    
Maximum Humidity 85    
Minimum Humidity 60    
Precipitation  
Precipitation T in 0.05 in 0.12 in (2003)
Month to date precipitation 1.90 1.71  
Year to date precipitation 1.90 1.71  
Snow  
Snow T in - - ()
Month to date snowfall 15.6  
Since 1 July snowfall 36.1  
Snow Depth 13.00 in    
Sea Level Pressure  
Sea Level Pressure 30.01 in    
Wind  
Wind Speed 9 mph (WSW)    
Max Wind Speed 18 mph    
Max Gust Speed 22 mph    
Visibility 10 miles    
Events      
T = Trace of Precipitation, MM = Missing Value Source: NWS Daily Summary

Daily Weather History Graph

Daily Weather History Graph

Search for Another Location

Airport or City:

Trip Planner

Search our weather history database for the weather conditions in past years. The results will help you decide how hot, cold, wet, or windy it might be!

Date:

Astronomy

Jan. 31, 2014 Rise Set
Actual Time 7:53 AM EST 5:46 PM EST
Civil Twilight 7:23 AM EST 6:16 PM EST
Nautical Twilight 6:48 AM EST 6:51 PM EST
Astronomical Twilight 6:15 AM EST 7:24 PM EST
Moon 7:59 AM EST (1/31) 7:13 PM EST (1/31)
Length of Visible Light 10h 53m
Length of Day
9h 52m
New Moon, 1% of the Moon is Illuminated
Jan 31
New Moon
Feb 6
First Quarter
Feb 14
Full
Feb 22
Last Quarter
Mar 1
New

Hourly Weather History & Observations

Time (EST) Temp. Windchill Dew Point Humidity Pressure Visibility Wind Dir Wind Speed Gust Speed Precip Events Conditions
12:18 AM 28.4 °F 16.6 °F 24.8 °F 86% 29.75 in 8.0 mi SW 16.1 mph - 0.00 in   Overcast
12:53 AM 30.0 °F 19.1 °F 25.0 °F 82% 29.79 in 8.0 mi SW 15.0 mph - 0.00 in   Overcast
1:02 AM 30.2 °F 18.9 °F 24.8 °F 80% 29.77 in 9.0 mi SW 16.1 mph - N/A   Overcast
1:53 AM 30.0 °F 19.5 °F 26.1 °F 85% 29.81 in 9.0 mi SW 13.8 mph - N/A   Overcast
2:53 AM 30.9 °F 22.8 °F 26.1 °F 82% 29.86 in 9.0 mi WSW 9.2 mph - N/A   Overcast
3:40 AM 30.2 °F 21.9 °F 24.8 °F 80% 29.85 in 10.0 mi West 9.2 mph - N/A   Overcast
3:53 AM 32.0 °F 22.1 °F 23.0 °F 69% 29.88 in 10.0 mi West 13.8 mph - N/A   Overcast
4:00 AM 32.0 °F 22.5 °F 21.2 °F 64% 29.86 in 10.0 mi West 12.7 mph - N/A   Overcast
4:53 AM 30.0 °F 21.1 °F 21.0 °F 69% 29.91 in 10.0 mi WNW 10.4 mph - N/A   Overcast
5:02 AM 30.2 °F 21.3 °F 21.2 °F 69% 29.89 in 10.0 mi West 10.4 mph - N/A   Overcast
5:53 AM 28.0 °F 18.6 °F 19.0 °F 69% 29.93 in 10.0 mi WNW 10.4 mph - N/A   Scattered Clouds
6:53 AM 26.1 °F 18.4 °F 16.0 °F 66% 29.99 in 10.0 mi WNW 6.9 mph - N/A   Scattered Clouds
7:00 AM 26.6 °F 17.5 °F 15.8 °F 64% 29.96 in 10.0 mi WNW 9.2 mph - N/A   Mostly Cloudy
7:50 AM 24.8 °F 17.9 °F 15.8 °F 69% 29.99 in 10.0 mi West 5.8 mph - N/A   Scattered Clouds
7:53 AM 24.1 °F 16.0 °F 15.1 °F 69% 30.02 in 10.0 mi West 6.9 mph - N/A   Partly Cloudy
8:53 AM 21.9 °F 15.7 °F 15.1 °F 75% 30.05 in 10.0 mi West 4.6 mph - N/A   Clear
9:53 AM 23.0 °F 13.9 °F 15.1 °F 72% 30.08 in 10.0 mi West 8.1 mph - N/A   Clear
10:53 AM 23.0 °F 14.7 °F 15.1 °F 72% 30.11 in 10.0 mi WSW 6.9 mph - N/A   Clear
11:53 AM 23.0 °F 15.8 °F 15.1 °F 72% 30.09 in 10.0 mi WSW 5.8 mph - N/A   Clear
12:53 PM 23.0 °F 13.1 °F 14.0 °F 68% 30.09 in 10.0 mi WSW 9.2 mph - N/A   Clear
1:53 PM 23.0 °F 11.1 °F 12.9 °F 65% 30.10 in 10.0 mi SW 12.7 mph - N/A   Clear
2:53 PM 24.1 °F 14.4 °F 12.9 °F 62% 30.11 in 10.0 mi WSW 9.2 mph - N/A   Clear
3:53 PM 25.0 °F 13.6 °F 15.1 °F 66% 30.12 in 10.0 mi SW 12.7 mph - N/A   Clear
4:53 PM 24.1 °F 13.7 °F 14.0 °F 65% 30.12 in 10.0 mi SW 10.4 mph - N/A   Clear
5:53 PM 23.0 °F 12.4 °F 12.9 °F 65% 30.14 in 10.0 mi SW 10.4 mph - N/A   Clear
6:53 PM 23.0 °F 14.7 °F 12.9 °F 65% 30.14 in 10.0 mi SW 6.9 mph - N/A   Clear
7:53 PM 21.9 °F 17.2 °F 12.9 °F 68% 30.14 in 10.0 mi SW 3.5 mph - N/A   Clear
8:53 PM 21.9 °F 15.7 °F 12.9 °F 68% 30.15 in 10.0 mi SSW 4.6 mph - N/A   Clear
9:53 PM 19.9 °F 13.4 °F 12.9 °F 74% 30.15 in 10.0 mi SW 4.6 mph - N/A   Clear
10:53 PM 19.9 °F 13.4 °F 12.9 °F 74% 30.15 in 10.0 mi SW 4.6 mph - N/A   Clear
11:53 PM 19.9 °F 14.9 °F 12.9 °F 74% 30.16 in 10.0 mi SW 3.5 mph - N/A   Clear